STARLINK-32671 (62209 NORAD) Tracking and Keplerian Element Data

This shows tracking and keplerian element data for the satellite.

Feedback or suggestion? Click here.




ElementValue
Catalog62209
NameSTARLINK-32671
Epoch Orbit1076
Epoch Day34.95742377
Epoch Year2025
RAAN3.1246
Inclination43.0046
Eccentricity0.0001033
Argument of Perigee244.4828
Mean Anonmoly115.5918
Mean Motion15.32094626
Decay Rate-2.82E-06
L11 62209U 24229T 25034.95742377 -.00000282 00000+0 -21313-6 0 9995
L22 62209 43.0046 3.1246 0001033 244.4828 115.5918 15.32094626 10765



Live tracking and technical data element details for STARLINK-32671 (NORAD 62209). STARLINK-32671 can be tracked NOW for your location showing map with azimuth and elevation plus other details from your city location.







IsCatalogInMostPopularTable: catalog: 62209, numindb: 12
Update: records affected: 1



GetName: 62209 STARLINK-32671

Hit Count: updated at: Mon, 19 May 2025 02:10:54 GMT